Regional Weather Roundup
Issued by NWS

Home | Current Version | Previous Version | Graphics & Text | Print | Product List | Glossary On
Versions: 1 2 3 4 5 6 7 8 9 10 11 12 13 14 15 16 17 18 19 20 21 22 23 24 25 26 27 28 29 30 31 32 33 34 35 36 37 38 39 40 41 42 43 44 45 46 47 48 49 50
000
ASUS45 KBOU 260007
RWRCO

WEATHER ROUNDUP FOR COLORADO
NATIONAL WEATHER SERVICE DENVER/BOULDER CO
600 PM MDT SAT APR 25 2015

NOTE: "FAIR" INDICATES FEW OR NO CLOUDS BELOW 12000 FEET WITH NO
SIGNIFICANT WEATHER AND/OR OBSTRUCTIONS TO VISIBILITY.

COZ001>005-013-030-031-260100-
...NORTHWEST COLORADO...

CITY           SKY/WX    TMP DP  RH WIND       PRES   REMARKS
CRAIG          PTSUNNY   54  31  41 NE6       29.76S
HAYDEN         PTSUNNY   52  30  43 CALM      29.77S
MEEKER         CLOUDY    54  30  40 SW12      29.76S
MOUNT WERNER   NOT AVBL
STEAMBOAT SPGS PTSUNNY   51  31  47 CALM      29.77F
WALDEN         MOSUNNY   50  21  32 SW7       29.81R
$$

COZ006>008-011-260100-
...WEST CENTRAL VALLEYS...

CITY           SKY/WX    TMP DP  RH WIND       PRES   REMARKS
GRAND JUNCTION CLOUDY    49  45  86 W9        29.76S
MONTROSE       CLOUDY    51  43  74 NW8       29.78S
EAGLE          PTSUNNY   55  34  44 SW16      29.78F
RIFLE          CLOUDY    53  37  54 W6        29.75F
DELTA          NOT AVBL
NUCLA          CLOUDY    50  43  76 N3        29.80R
$$

COZ017>023-064>068-260100-
...SOUTHWEST COLORADO...

CITY           SKY/WX    TMP DP  RH WIND       PRES   REMARKS
DURANGO        LGT RAIN  48  35  60 SE14G22   29.83R
CORTEZ         MOSUNNY   59  32  36 MISG      29.77S
PAGOSA SPRINGS CLOUDY    52  30  42 SW10G16   29.86S
TELLURIDE      CLOUDY    43  29  57 SW9       29.89R
WOLF CREEK PAS NOT AVBL
$$

COZ009-010-012-014-032>034-037-058>063-260100-
...CENTRAL COLORADO...

CITY           SKY/WX    TMP DP  RH WIND       PRES   REMARKS
ASPEN          CLOUDY    48  33  56 SE10      29.81R
BUENA VISTA    CLOUDY    51  30  44 E5        29.80F
COPPER MTN     CLOUDY    34  30  86 CALM      29.95S
BERTHOUD PASS  SNOW      25  18  74 CALM      29.99S VSB<1/4
COTTONWOOD PAS PTSUNNY   46  28  49 CALM      29.88S
GUNNISON       PTSUNNY   52  28  40 E12       29.81F
KREMMLING      PTSUNNY   50  36  57 E7        29.82R
LEADVILLE      CLOUDY    39  23  52 S24G32    29.86R
MONARCH PASS   PTSUNNY   32  27  80 S8        30.05F WCI  25
SALIDA         PTSUNNY   55  31  40 SE5       29.86S
SUNLIGHT       CLOUDY    36  32  87 CALM      29.93F
WILKERSON PASS LGT SNOW  32  28  86 E8        29.97R VSB 3/4 WCI  25
$$

COZ069>075-260100-
...SAN LUIS VALLEY/SANGRE DE CRISTO MOUNTAINS...

CITY           SKY/WX    TMP DP  RH WIND       PRES   REMARKS
ALAMOSA        MOSUNNY   59  22  24 SW21G30   29.78S
LA VETA PASS   MOSUNNY   45  23  42 S10G20    29.91S
SAGUACHE       CLOUDY    55  27  33 SE6       29.79F
$$

COZ035-036-038>040-260100-
...NORTHERN COLORADO FRONT RANGE...

CITY           SKY/WX    TMP DP  RH WIND       PRES   REMARKS
DENVER INTL AP CLOUDY    62  32  32 SW13      29.71R
DMNS CITY PARK   N/A     62  32  32 S8G14     29.72R
AURORA         PTSUNNY   59  31  34 S10       29.73R
FRONT RANGE AP NOT AVBL
ERIE MUNI ARPT CLOUDY    63  30  29 E5        29.71S
BOULDER MUN AP CLOUDY    61  32  33 W8        29.72R
CENTENNIAL     CLOUDY    56  35  45 CALM      29.74F
BROOMFIELD     PTSUNNY   63  32  31 NE7       29.73S
FORT COLLINS   PTSUNNY   61  37  41 N7        29.74R
LONGMONT       PTSUNNY   63  37  38 N9        29.73R
$$

COZ041-046-047-076>085-087-088-260100-
...PIKES PEAK/PALMER DIVIDE AND SOUTHERN FOOTHILLS...

CITY           SKY/WX    TMP DP  RH WIND       PRES   REMARKS
COLO. SPRINGS  CLOUDY    59  29  31 NW7       29.74F
A. F. ACADEMY  CLOUDY    57  28  33 S6        29.74S
ELLICOTT       LGT RAIN N/A N/A N/A CALM      29.72S
FALCON         CLOUDY    59  22  24 SW10G16   29.77F
FORT CARSON    CLOUDY    60  33  36 N8        29.71S
LIMON          CLOUDY    64  23  21 S14       29.71R
MONUMENT HILL  CLOUDY    54  30  40 S6        29.77S
TRINIDAD       CLOUDY    68  24  19 S14G20    29.69R
$$

COZ042>045-048>051-090-091-260100-
...NORTHEAST COLORADO...

CITY           SKY/WX    TMP DP  RH WIND       PRES   REMARKS
GREELEY ARPT   CLOUDY    59  39  47 CALM      29.74R
AKRON          PTSUNNY   67  37  33 SE22G30   29.69S
BURLINGTON     MOSUNNY   69  37  30 E15       29.70F
WRAY           MOSUNNY   69  40  34 E10       29.69S
STERLING       PTSUNNY   66  41  39 E10       29.67S
HOLYOKE        MOSUNNY   72  41  33 E10       29.71R
FORT MORGAN    PTSUNNY   64  35  34 E8        29.68S
$$

COZ086-089-092>099-260100-
...SOUTHEAST COLORADO...

CITY           SKY/WX    TMP DP  RH WIND       PRES   REMARKS
PUEBLO         PTSUNNY   69  25  19 SE17      29.64R
LA JUNTA       MOSUNNY   75  24  15 SE18      29.62F
LAMAR          PTSUNNY   73  30  20 SE16G32   29.63S
SPRINGFIELD      N/A     71  30  21 SE16      29.67S
$$


USA.gov is the U.S. government's official web portal to all federal, state and local government web resources and services.